Location: Eldred Sherwood Park Lake Dam
(42.9416°N, 93.5655°W)
Time: 21:44:45
(UTC+00:00)

BlueWalker 3 - Pass Details

Date: 07 October 2024
Orbit: 470 x 481 km, 53.2° (Epoch: 11 November)

Event Time Altitude Azimuth Distance (km) Brightness Sun altitude
Exits shadow 10:22:57 79° 71° (ENE) 482 1.8 -21.9°
Drops below altitude 10° 10:26:27 10° 54° (NE) 1,632 5.5 -21.3°
Sets 10:28:36 0° 54° (NE) 2,513 6.7 -20.9°
